DT_LEITURA;HR_LEITURA;MED-PressaoAtm[hPa];VAL-TempExt[oC];VAL-UmidExt[%UR];VAL-TempInt[oC];VAL-UmidInt[%UR];Dir-Vento[grau];Vel-Vento[m/s];Precipitação[mm/h]
22/04/2026;00:00:00;1011,1;-34,9;26;27,9;81;59;0,8;0,0
22/04/2026;00:05:00;1011,2;-34,9;26;27,9;81;56;0,6;0,0
22/04/2026;00:10:00;1011,2;-35,0;26;27,9;81;57;0,6;0,0
22/04/2026;00:15:00;1011,2;-35,0;26;27,9;81;66;0,6;0,0
22/04/2026;00:20:00;1011,1;-35,0;26;27,9;81;63;0,6;0,0
22/04/2026;00:25:00;1011,1;-35,0;26;27,9;81;56;0,8;0,0
22/04/2026;00:30:00;1011,1;-35,0;26;27,9;81;59;0,6;0,0
22/04/2026;00:35:00;1011,0;-35,0;26;27,9;81;69;0,5;0,0
22/04/2026;00:40:00;1010,9;-35,0;26;27,9;81;67;0,7;0,0
22/04/2026;00:45:00;1011,0;-35,0;26;27,9;81;60;0,8;0,0
22/04/2026;00:50:00;1011,0;-35,0;26;27,9;81;59;0,8;0,0
22/04/2026;00:55:00;1011,0;-35,0;26;27,9;81;96;0,7;0,0
22/04/2026;01:00:00;1010,8;-35,0;26;27,9;81;115;0,4;0,0
22/04/2026;01:05:00;1010,7;-35,1;26;27,9;81;309;0,4;0,0
22/04/2026;01:10:00;1010,7;-35,0;26;27,8;82;79;0,4;0,0
22/04/2026;01:15:00;1010,6;-35,0;26;27,8;82;239;0,3;0,0
22/04/2026;01:20:00;1010,5;-35,0;26;27,8;82;195;0,4;0,0
22/04/2026;01:25:00;1010,2;-35,0;26;27,7;82;107;0,3;0,0
22/04/2026;01:30:00;1010,2;-35,1;26;27,7;82;227;0,4;0,0
22/04/2026;01:35:00;1010,1;-35,1;26;27,6;82;197;0,4;0,0
22/04/2026;01:40:00;1010,1;-35,1;26;27,6;82;49;0,4;0,0
22/04/2026;01:45:00;1010,0;-35,1;26;27,6;82;237;0,3;0,0
22/04/2026;01:50:00;1009,9;-35,1;26;27,5;82;128;0,5;0,0
22/04/2026;01:55:00;1009,8;-35,1;26;27,5;82;128;0,4;0,0
22/04/2026;02:00:00;1009,7;-35,1;26;27,4;82;124;0,4;0,0
22/04/2026;02:05:00;1009,7;-35,1;26;27,4;82;105;0,4;0,0
22/04/2026;02:10:00;1009,6;-35,1;26;27,4;82;76;0,6;0,0
22/04/2026;02:15:00;1009,7;-35,1;26;27,3;82;92;0,6;0,0
22/04/2026;02:20:00;1009,7;-35,0;26;27,2;82;283;0,4;0,0
22/04/2026;02:25:00;1009,6;-35,1;26;27,2;82;185;0,4;0,0
22/04/2026;02:30:00;1009,6;-35,1;26;27,1;82;329;0,3;0,0
22/04/2026;02:35:00;1009,6;-35,1;26;27,0;82;244;0,3;0,0
22/04/2026;02:40:00;1009,6;-35,1;26;27,0;82;83;0,5;0,0
22/04/2026;02:45:00;1009,7;-35,1;26;27,0;82;84;0,7;0,0
22/04/2026;02:50:00;1009,7;-35,1;26;27,0;82;86;0,6;0,0
22/04/2026;02:55:00;1009,7;-35,1;26;26,9;83;98;0,8;0,0
22/04/2026;03:00:00;1009,5;-35,1;26;26,9;83;125;0,4;0,0
22/04/2026;03:05:00;1009,5;-35,1;26;26,9;83;126;0,3;0,0
22/04/2026;03:10:00;1009,5;-35,1;26;26,9;83;94;0,3;0,0
22/04/2026;03:15:00;1009,5;-35,1;26;26,8;83;89;0,3;0,0
22/04/2026;03:20:00;1009,5;-35,1;26;26,8;83;85;0,5;0,0
22/04/2026;03:25:00;1009,5;-35,2;26;26,8;83;97;0,6;0,0
22/04/2026;03:30:00;1009,5;-35,2;26;26,8;83;112;0,5;0,0
22/04/2026;03:35:00;1009,5;-35,2;26;26,7;84;119;0,4;0,0
22/04/2026;03:40:00;1009,4;-35,2;26;26,7;84;107;0,5;0,0
22/04/2026;03:45:00;1009,4;-35,2;26;26,6;84;74;0,5;0,0
22/04/2026;03:50:00;1009,4;-35,2;26;26,5;84;63;0,9;0,0
22/04/2026;03:55:00;1009,4;-35,3;26;26,4;84;67;0,8;0,0
22/04/2026;04:00:00;1009,4;-35,3;26;26,3;84;81;0,4;0,0
22/04/2026;04:05:00;1009,5;-35,3;26;26,2;85;90;0,5;0,0
22/04/2026;04:10:00;1009,5;-35,2;26;26,1;85;131;0,3;0,0
22/04/2026;04:15:00;1009,5;-35,3;26;26,1;85;129;0,3;0,0
22/04/2026;04:20:00;1009,6;-35,3;26;26,1;85;61;0,6;0,0
22/04/2026;04:25:00;1009,6;-35,4;26;26,0;85;70;0,9;0,0
22/04/2026;04:30:00;1009,6;-35,3;26;26,0;85;60;1,2;0,0
22/04/2026;04:35:00;1009,6;-35,3;26;25,9;85;67;0,9;0,0
22/04/2026;04:40:00;1009,5;-35,3;26;25,9;85;58;1,0;0,0
22/04/2026;04:45:00;1009,5;-35,3;26;25,9;85;60;1,1;0,0
22/04/2026;04:50:00;1009,5;-35,3;26;25,9;86;61;0,9;0,0
22/04/2026;04:55:00;1009,6;-35,3;26;25,9;86;63;1,1;0,0
22/04/2026;05:00:00;1009,6;-35,3;26;25,9;86;56;1,1;0,0
22/04/2026;05:05:00;1009,7;-35,3;26;25,9;86;67;1,1;0,0
22/04/2026;05:10:00;1009,7;-35,3;26;25,9;86;96;0,6;0,0
22/04/2026;05:15:00;1009,7;-35,3;26;25,9;86;66;0,7;0,0
22/04/2026;05:20:00;1009,7;-35,3;26;25,9;86;76;0,7;0,0
22/04/2026;05:25:00;1009,6;-35,3;26;25,9;86;57;0,5;0,0
22/04/2026;05:30:00;1009,6;-35,3;26;25,9;86;115;0,5;0,0
22/04/2026;05:35:00;1009,6;-35,3;26;25,9;86;76;0,5;0,0
22/04/2026;05:40:00;1009,5;-35,3;26;25,9;86;64;0,8;0,0
22/04/2026;05:45:00;1009,6;-35,3;26;25,9;86;59;1,2;0,0
22/04/2026;05:50:00;1009,5;-35,3;26;25,9;87;55;1,3;0,0
22/04/2026;05:55:00;1009,5;-35,3;26;25,9;87;60;0,8;0,0
22/04/2026;06:00:00;1009,5;-35,3;26;26,0;87;56;0,9;0,0
22/04/2026;06:05:00;1009,6;-35,3;26;26,0;87;64;1,0;0,0
22/04/2026;06:10:00;1009,6;-35,3;26;26,0;87;63;0,9;0,0
22/04/2026;06:15:00;1009,6;-35,3;26;26,1;87;61;1,0;0,0
22/04/2026;06:20:00;1009,6;-35,3;26;26,1;87;65;1,1;0,0
22/04/2026;06:25:00;1009,6;-35,3;26;26,1;87;73;1,3;0,0
22/04/2026;06:30:00;1009,6;-35,3;26;26,1;87;66;1,2;0,0
22/04/2026;06:35:00;1009,7;-35,3;26;26,1;87;65;1,2;0,0
22/04/2026;06:40:00;1009,7;-35,3;26;26,1;86;62;1,2;0,0
22/04/2026;06:45:00;1009,7;-35,3;26;26,1;86;66;1,1;0,0
22/04/2026;06:50:00;1009,8;-35,3;26;26,2;86;71;0,9;0,0
22/04/2026;06:55:00;1009,8;-35,3;26;26,2;86;71;0,6;0,0
22/04/2026;07:00:00;1009,9;-35,3;26;26,2;86;71;0,6;0,0
22/04/2026;07:05:00;1009,9;-35,3;26;26,2;86;60;1,0;0,0
22/04/2026;07:10:00;1010,0;-35,3;26;26,2;86;58;0,8;0,0
22/04/2026;07:15:00;1010,1;-35,3;26;26,3;86;68;1,1;0,0
22/04/2026;07:20:00;1010,3;-35,3;26;26,3;86;69;1,1;0,0
22/04/2026;07:25:00;1010,4;-35,3;26;26,4;87;70;0,9;0,0
22/04/2026;07:30:00;1010,4;-35,3;26;26,4;87;70;1,0;0,0
22/04/2026;07:35:00;1010,5;-35,3;26;26,5;87;71;1,3;0,0
22/04/2026;07:40:00;1010,6;-35,3;26;26,5;87;64;1,3;0,0
22/04/2026;07:45:00;1010,6;-35,3;26;26,6;87;66;1,1;0,0
22/04/2026;07:50:00;1010,6;-35,3;26;26,6;87;64;1,3;0,0
22/04/2026;07:55:00;1010,7;-35,3;26;26,7;87;63;1,2;0,0
22/04/2026;08:00:00;1010,8;-35,3;26;26,8;87;64;1,2;0,0
22/04/2026;08:05:00;1010,8;-35,3;26;26,8;86;69;1,1;0,0
22/04/2026;08:10:00;1010,8;-35,3;26;26,9;86;71;1,0;0,0
22/04/2026;08:15:00;1010,9;-35,3;26;27,0;86;70;1,2;0,0
22/04/2026;08:20:00;1010,9;-35,3;26;27,0;86;69;1,3;0,0
22/04/2026;08:25:00;1011,0;-35,3;26;27,2;86;65;1,5;0,0
22/04/2026;08:30:00;1011,0;-35,3;26;27,3;86;73;1,4;0,0
22/04/2026;08:35:00;1011,0;-35,3;26;27,4;85;72;1,5;0,0
22/04/2026;08:40:00;1011,1;-35,2;26;27,5;85;69;1,6;0,0
22/04/2026;08:45:00;1011,1;-35,2;26;27,6;84;73;1,3;0,0
22/04/2026;08:50:00;1011,2;-35,1;26;27,8;83;67;1,4;0,0
22/04/2026;08:55:00;1011,3;-35,1;26;28,0;82;63;1,6;0,0
22/04/2026;09:00:00;1011,3;-35,0;26;28,1;81;66;1,5;0,0
22/04/2026;09:05:00;1011,4;-35,0;26;28,3;81;69;1,4;0,0
22/04/2026;09:10:00;1011,4;-34,9;26;28,5;79;64;1,7;0,0
22/04/2026;09:15:00;1011,4;-34,8;26;28,9;78;69;1,5;0,0
22/04/2026;09:20:00;1011,4;-34,7;26;29,4;76;70;1,6;0,0
22/04/2026;09:25:00;1011,4;-34,4;27;29,9;74;71;1,6;0,0
22/04/2026;09:30:00;1011,4;-33,9;26;30,5;72;75;1,7;0,0
22/04/2026;09:35:00;1011,4;-32,6;24;31,0;70;77;1,6;0,0
22/04/2026;09:40:00;1011,4;-30,8;23;31,5;68;71;1,6;0,0
22/04/2026;09:45:00;1011,4;-28,5;22;31,8;67;67;1,7;0,0
22/04/2026;09:50:00;1011,4;-25,7;21;31,9;67;81;1,7;0,0
22/04/2026;09:55:00;1011,4;-23,4;21;32,0;66;74;1,6;0,0
22/04/2026;10:00:00;1011,4;-21,9;20;32,1;66;68;1,3;0,0
22/04/2026;10:05:00;1011,5;-20,1;20;32,5;65;70;1,5;0,0
22/04/2026;10:10:00;1011,5;-18,2;20;32,9;63;79;1,5;0,0
22/04/2026;10:15:00;1011,4;-16,4;20;33,4;62;79;1,4;0,0
22/04/2026;10:20:00;1011,4;-18,8;19;33,7;61;84;1,4;0,0
22/04/2026;10:25:00;1011,4;-36,6;17;33,8;60;67;1,7;0,0
22/04/2026;10:30:00;1011,4;-38,9;17;33,9;60;75;1,5;0,0
22/04/2026;10:35:00;1011,4;-25,0;19;34,1;60;71;1,6;0,0
22/04/2026;10:40:00;1011,4;-24,6;18;34,3;59;83;1,7;0,0
22/04/2026;10:45:00;1011,4;-37,6;17;34,5;58;74;1,7;0,0
22/04/2026;10:50:00;1011,4;-39,1;16;34,7;57;80;1,7;0,0
22/04/2026;10:55:00;1011,4;-39,1;16;34,6;58;81;1,4;0,0
22/04/2026;11:00:00;1011,4;-38,6;16;34,7;57;75;1,5;0,0
22/04/2026;11:05:00;1011,4;-39,1;16;35,0;56;67;1,4;0,0
22/04/2026;11:10:00;1011,4;-39,4;16;35,2;56;72;1,2;0,0
22/04/2026;11:15:00;1011,3;-39,4;16;35,0;56;72;1,3;0,0
22/04/2026;11:20:00;1011,3;-39,4;16;35,3;56;94;1,3;0,0
22/04/2026;11:25:00;1011,2;-39,4;16;35,5;55;74;1,1;0,0
22/04/2026;11:30:00;1011,2;-39,4;15;35,7;54;86;1,2;0,0
22/04/2026;11:35:00;1011,2;-37,7;16;35,8;54;82;1,4;0,0
22/04/2026;11:40:00;1011,2;-32,0;16;35,8;54;75;1,3;0,0
22/04/2026;11:45:00;1011,1;-34,2;16;35,6;54;71;1,6;0,0
22/04/2026;11:50:00;1011,1;-19,6;17;35,4;55;72;1,3;0,0
22/04/2026;11:55:00;1011,1;-20,8;16;35,2;55;69;1,5;0,0
22/04/2026;12:00:00;1011,0;-26,5;16;35,2;55;87;1,3;0,0
22/04/2026;12:05:00;1010,9;-25,5;16;35,4;55;97;1,6;0,0
22/04/2026;12:10:00;1010,9;-35,4;15;35,5;55;95;1,6;0,0
22/04/2026;12:15:00;1010,8;-34,5;16;35,6;55;84;1,3;0,0
22/04/2026;12:20:00;1010,7;-27,3;16;35,8;55;72;1,3;0,0
22/04/2026;12:25:00;1010,6;-29,0;16;36,1;54;70;1,4;0,0
22/04/2026;12:30:00;1010,4;-27,4;16;36,4;53;85;1,3;0,0
22/04/2026;12:35:00;1010,4;-33,4;15;36,6;52;86;1,4;0,0
22/04/2026;12:40:00;1010,3;-38,6;15;36,7;51;81;1,7;0,0
22/04/2026;12:45:00;1010,1;-24,9;16;36,8;51;75;1,5;0,0
22/04/2026;12:50:00;1009,9;-16,8;16;36,6;51;79;1,4;0,0
22/04/2026;12:55:00;1009,9;-15,1;16;36,2;52;75;1,4;0,0
22/04/2026;13:00:00;1009,8;-12,5;17;36,0;53;77;1,2;0,0
22/04/2026;13:05:00;1009,7;-14,4;17;36,5;53;71;1,5;0,0
22/04/2026;13:10:00;1009,6;-14,2;17;36,7;52;76;1,7;0,0
22/04/2026;13:15:00;1009,5;-31,7;14;37,1;50;69;1,6;0,0
22/04/2026;13:20:00;1009,5;-39,0;14;37,0;50;71;1,5;0,0
22/04/2026;13:25:00;1009,4;-38,0;14;36,9;50;75;1,9;0,0
22/04/2026;13:30:00;1009,3;-18,4;16;36,5;51;78;2,0;0,0
22/04/2026;13:35:00;1009,4;-13,4;16;35,7;53;66;2,5;0,0
22/04/2026;13:40:00;1009,4;-12,5;16;34,8;56;70;2,2;0,0
22/04/2026;13:45:00;1009,4;-12,4;16;34,0;59;76;2,3;0,0
22/04/2026;13:50:00;1009,4;-12,6;16;33,3;61;76;2,4;0,0
22/04/2026;13:55:00;1009,3;-13,1;15;32,7;63;63;2,9;0,0
22/04/2026;14:00:00;1009,3;-13,9;15;32,0;63;68;2,5;0,0
22/04/2026;14:05:00;1009,1;-15,6;15;31,3;64;73;2,6;0,0
22/04/2026;14:10:00;1009,0;-19,6;15;30,5;68;69;2,8;0,2
22/04/2026;14:15:00;1008,9;-22,2;21;29,3;73;71;2,3;1,2
22/04/2026;14:20:00;1008,7;-25,5;24;28,5;77;74;1,5;0,4
22/04/2026;14:25:00;1008,5;-29,8;25;28,1;79;67;1,4;0,2
22/04/2026;14:30:00;1008,4;-31,4;25;27,7;80;66;1,5;0,0
22/04/2026;14:35:00;1008,4;-32,3;25;27,4;82;70;0,9;0,2
22/04/2026;14:40:00;1008,3;-33,1;25;27,4;82;65;1,0;0,0
22/04/2026;14:45:00;1008,1;-33,6;26;27,4;82;70;1,0;0,0
22/04/2026;14:50:00;1007,9;-33,9;26;27,5;82;73;0,9;0,0
22/04/2026;14:55:00;1007,8;-34,1;26;27,5;82;74;1,0;0,0
22/04/2026;15:00:00;1007,6;-34,2;26;27,6;82;72;1,1;0,0
22/04/2026;15:05:00;1007,6;-34,3;26;27,6;82;71;0,9;0,0
22/04/2026;15:10:00;1007,6;-34,4;26;27,7;82;80;0,8;0,0
22/04/2026;15:15:00;1007,6;-34,5;26;27,8;82;66;0,8;0,0
22/04/2026;15:20:00;1007,6;-34,6;26;27,8;82;66;1,0;0,0
22/04/2026;15:25:00;1007,5;-34,6;26;27,9;82;67;1,0;0,0
22/04/2026;15:30:00;1007,4;-34,7;26;27,9;82;76;0,8;0,0
22/04/2026;15:35:00;1007,3;-34,7;26;27,9;82;66;1,0;0,2
22/04/2026;15:40:00;1007,2;-34,8;26;27,9;82;60;0,9;0,0
22/04/2026;15:45:00;1007,2;-34,8;26;27,8;83;63;0,6;0,0
22/04/2026;15:50:00;1007,2;-34,9;26;27,8;83;74;0,5;0,0
22/04/2026;15:55:00;1007,2;-34,9;26;27,8;84;121;0,3;0,2
22/04/2026;16:00:00;1007,1;-35,0;26;27,9;84;73;0,2;0,0
22/04/2026;16:05:00;1006,9;-35,0;26;27,9;84;139;0,3;0,0
22/04/2026;16:10:00;1006,8;-35,0;26;27,9;84;96;0,4;0,0
22/04/2026;16:15:00;1006,8;-35,0;26;27,9;84;79;0,5;0,0
22/04/2026;16:20:00;1006,8;-35,0;26;28,0;84;79;0,6;0,0
22/04/2026;16:25:00;1006,8;-35,0;26;28,1;84;79;0,6;0,0
22/04/2026;16:30:00;1006,8;-35,0;26;28,1;84;73;0,7;0,0
22/04/2026;16:35:00;1006,9;-35,0;26;28,2;84;80;0,6;0,0
22/04/2026;16:40:00;1006,9;-35,1;26;28,2;84;69;0,8;0,0
22/04/2026;16:45:00;1007,0;-35,0;26;28,2;84;74;0,7;0,0
22/04/2026;16:50:00;1007,0;-35,0;26;28,2;84;65;0,6;0,0
22/04/2026;16:55:00;1007,0;-35,0;26;28,3;84;73;0,5;0,0
22/04/2026;17:00:00;1007,0;-35,0;26;28,3;84;69;0,5;0,0
22/04/2026;17:05:00;1007,0;-35,0;26;28,4;84;73;0,4;0,0
22/04/2026;17:10:00;1007,1;-35,0;26;28,4;84;97;0,5;0,0
22/04/2026;17:15:00;1007,1;-35,0;26;28,4;84;89;0,5;0,0
22/04/2026;17:20:00;1007,2;-35,0;26;28,3;84;79;0,5;0,0
22/04/2026;17:25:00;1007,2;-35,0;26;28,3;83;126;0,3;0,0
22/04/2026;17:30:00;1007,2;-35,0;26;28,3;83;95;0,3;0,0
22/04/2026;17:35:00;1007,2;-35,0;26;28,3;84;92;0,6;0,0
22/04/2026;17:40:00;1007,3;-35,0;26;28,3;83;60;0,6;0,0
22/04/2026;17:45:00;1007,3;-35,0;26;28,3;83;74;0,6;0,0
22/04/2026;17:50:00;1007,4;-35,0;26;28,3;83;78;0,6;0,0
22/04/2026;17:55:00;1007,5;-35,0;26;28,2;83;65;0,5;0,0
22/04/2026;18:00:00;1007,5;-35,0;26;28,2;83;59;0,7;0,0
22/04/2026;18:05:00;1007,5;-35,1;26;28,2;83;62;0,7;0,0
22/04/2026;18:10:00;1007,5;-35,1;26;28,1;84;116;0,3;0,0
22/04/2026;18:15:00;1007,6;-35,1;26;28,1;84;95;0,2;0,0
22/04/2026;18:20:00;1007,6;-35,1;26;28,1;84;119;0,2;0,0
22/04/2026;18:25:00;1007,6;-35,1;26;28,1;84;131;0,3;0,0
22/04/2026;18:30:00;1007,7;-35,1;26;28,0;85;104;0,4;0,0
22/04/2026;18:35:00;1007,8;-35,1;26;28,0;85;121;0,3;0,0
22/04/2026;18:40:00;1007,8;-35,1;26;27,9;85;109;0,2;0,0
22/04/2026;18:45:00;1007,7;-35,2;26;27,9;85;158;0,2;0,0
22/04/2026;18:50:00;1007,7;-35,2;26;27,9;85;185;0,2;0,0
22/04/2026;18:55:00;1007,7;-35,2;26;27,9;85;101;0,2;0,0
22/04/2026;19:00:00;1007,7;-35,2;26;27,8;85;154;0,2;0,0
22/04/2026;19:05:00;1007,7;-35,2;26;27,8;86;104;0,4;0,0
22/04/2026;19:10:00;1007,7;-35,2;26;27,8;86;93;0,4;0,0
22/04/2026;19:15:00;1007,8;-35,2;26;27,8;86;149;0,2;0,0
22/04/2026;19:20:00;1007,9;-35,2;26;27,7;86;156;0,3;0,0
22/04/2026;19:25:00;1008,0;-35,2;26;27,7;86;166;0,3;0,0
22/04/2026;19:30:00;1008,1;-35,2;26;27,6;86;101;0,2;0,0
22/04/2026;19:35:00;1008,2;-35,2;26;27,6;86;83;0,3;0,0
22/04/2026;19:40:00;1008,2;-35,2;26;27,6;86;74;0,3;0,0
22/04/2026;19:45:00;1008,2;-35,2;26;27,6;86;63;0,2;0,0
22/04/2026;19:50:00;1008,4;-35,2;26;27,5;86;168;0,3;0,0
22/04/2026;19:55:00;1008,5;-35,2;26;27,5;86;222;0,2;0,0
22/04/2026;20:00:00;1008,7;-35,2;26;27,5;86;196;0,3;0,0
22/04/2026;20:05:00;1008,8;-35,2;26;27,5;86;196;0,3;0,0
22/04/2026;20:10:00;1008,9;-35,2;26;27,5;86;173;0,4;0,0
22/04/2026;20:15:00;1009,0;-35,2;26;27,4;86;186;0,4;0,0
22/04/2026;20:20:00;1009,1;-35,2;26;27,4;86;177;0,3;0,0
22/04/2026;20:25:00;1009,2;-35,2;26;27,4;86;219;0,2;0,0
22/04/2026;20:30:00;1009,4;-35,2;26;27,4;86;185;0,4;0,0
22/04/2026;20:35:00;1009,4;-35,2;26;27,4;86;208;0,6;0,0
22/04/2026;20:40:00;1009,5;-35,2;26;27,3;86;195;0,6;0,0
